Погода в Соргуне

Турция     39°48′54″N   35°11′27″E
темп.,
°C
ветер,
м/с
пор.,
м/с
влажн.,
%
обл.,
%
осадки,
мм/ч
давл.,
гПа
погр.,
м
17 мая, вт
вт1700:00+11ссв236370 0.0 101964
03:00+10св226997 0.0 101843
06:00+11всв116999 0.0 101854
09:00+13юв115688 0.0 1018474
12:00+18юв124598 0.1 10161938
15:00+16с235896 0.3 1016154
18:00+18всв334625 0.0 10141338
21:00+13св33585 0.0 101626
18 мая, ср
ср1800:00+10в11715 0.0 101610
03:00+9св11790 0.0 101510
06:00+9ю11760 0.0 101510
09:00+16ююз34520 0.0 1015546
12:00+20юз56400 0.0 10131758
15:00+22зюз67335 0.0 10112642
18:00+21юз454110 0.0 10101054
21:00+16ююз225283 0.0 101215
19 мая, чт
чт1900:00+14зсз225959 0.1 101216
03:00+9с369363 0.4 1015170
06:00+9ссв4690100 0.7 1017610
09:00+7св71090100 5.6 1020494
12:00+5св71179100 0.8 1024627
15:00+6ссв71072100 0.8 1024596
18:00+7св7106999 0.0 1024915
21:00+5всв597813 0.0 1026324
20 мая, пт
пт2000:00+3св388548 0.0 1027189
03:00+2ссв339021 0.0 102749
06:00+2ссв34936 0.0 102886
09:00+8св68633 0.0 1026772
12:00+13св77460 0.0 10241145
15:00+15св77430 0.0 10221342
18:00+13св67500 0.0 10221132
21:00+8св45750 0.0 102385
21 мая, сб
сб2100:00+6ссв32860 0.0 102319
03:00+4ссв22870 0.0 102311
06:00+4св22840 0.0 102312
09:00+11в11510 0.0 1020409
12:00+18з11320 0.0 1018952
15:00+20юз12270 0.0 10161436
18:00+20ююз33340 0.0 1015536
21:00+12з11470 0.0 101511